User: anonymous
Location: Bandys
(35.4750°N, 81.0830°W)
Time: 07:39:39
(UTC-04:00)
Language:

DELTA 2 R/B (1) - Orbit

View from above orbital plane
View from above orbital plane
View from above satellite
View from above satellite

Ground track
Ground track

The orbit data is extracted from the following two-line orbital elements,

1 27665U 03005C   14244.11143696  .00000079  00000-0  65186-4 0  1000
2 27665 039.5750 263.6596 0008724 123.9196 278.9927 14.28211927605042
Epoch (UTC): 01 September 2014 02:40:28
Eccentricity: 0.0008724
inclination: 39.5750°
perigee height: 791 km
apogee height: 804 km
right ascension of ascending node: 263.6596°
argument of perigee: 123.9196°
revolutions per day: 14.28211927
mean anomaly at epoch: 278.9927°
orbit number at epoch: 60504

The dashed part of the orbit path shows where the satellite is in the earth's shadow,  

DLR